星链-1230 (STARLINK-1230 )

导读

STARLINK-1230是美国太空探索技术公司 SpaceX 发射的星链卫星,属于星链低轨互联网星座组成部分,于2020年2月17日发射入轨。星链项目旨在为全球提供高速低延迟宽带互联网服务,该卫星承担着星座网络节点功能,服务全球偏远地区网络覆盖等场景。

基本信息
目录编号:
45189
目录名称:
STARLINK-1230
国际标识:
2020-012M
轨道中心:
EARTH
卫星名称:
星链-1230
卫星全名:
星链-1230 (STARLINK-1230 )
卫星状态:
在轨 (已飞行2308 天)
发射日期:
2020-02-17 UTC
国别 :
美国 (US)
星等 :
--
轨道信息
数据来源 国际轨道数据
星历时间: 2026-06-12T11:46:18+0800
20小时前
查看轨道信息
半长轴: 6838.119km
偏心率: 0.0001602
轨道倾角: 53.158°
近地点辐角 243.434°
升交点赤经 319.790°
平近点角 116.650°
近地点: 458.886km
远地点: 461.078km
周期: 93.792分钟
每日圈数: 15.353161
详细信息
固有亮度:
5
最大亮度:
2.5
卫星平台:
Starlink V1.0
覆盖范围:
全球
运营商:
太空探索技术公司
运营商所在国:
美国
制造商(研发单位):
太空探索技术公司
制造商所在国:
美国
使用方式:
暂无
卫星简介
星链(Starlink)计划是由太空探索技术公司(SpaceX)提出的一个巨型低轨卫星互联网星座项目,计划在2019年至2024年间在太空搭建由约1.2万颗卫星组成的“星链”网络,其中1584颗将部署在地球上空550千米处的近地轨道,并从2020年开始工作。该卫星仍在工作。
2D轨道图
3D轨道图
轨道高度分析图
轨道倾角分析图
轨道综合分析图
查看轨道综合分析图